Location: Engelmannsreuth
(49.8125°N, 11.6497°E)
Time: 19:51:49
(UTC+00:00)

Cosmos 407 Rocket - Pass Details

Date: 17 February 2020
Orbit: 745 x 785 km, 74.0° (Epoch: 07 April)

Event Time Altitude Azimuth Distance (km) Brightness Sun altitude
Rises 04:45:51 0° 196° (SSW) 3,261 6.6 -16.0°
Reaches altitude 10° 04:48:14 10° 194° (SSW) 2,334 5.9 -15.6°
Maximum altitude 04:53:31 74° 111° (ESE) 813 3.8 -14.7°
Drops below altitude 10° 04:58:48 10° 27° (NNE) 2,329 6.3 -13.9°
Sets 05:01:11 0° 26° (NNE) 3,254 7.1 -13.5°
